TimeCDT,TemperatureF,Dew PointF,Humidity,Sea Level PressureIn,VisibilityMPH,Wind Direction,Wind SpeedMPH,Gust SpeedMPH,PrecipitationIn,Events,Conditions,WindDirDegrees,DateUTC
12:15 AM,48.2,21.2,34,29.69,10.0,WNW,16.1,-,N/A,,Clear,300,2012-10-18 05:15:00
12:35 AM,46.4,21.2,37,29.68,10.0,WNW,17.3,-,N/A,,Clear,290,2012-10-18 05:35:00
12:55 AM,46.4,21.2,37,29.68,10.0,WNW,19.6,-,N/A,,Clear,300,2012-10-18 05:55:00
1:15 AM,48.2,19.4,32,29.68,10.0,NW,24.2,33.4,N/A,,Clear,310,2012-10-18 06:15:00
1:35 AM,48.2,19.4,32,29.67,10.0,NW,28.8,35.7,N/A,,Clear,310,2012-10-18 06:35:00
1:55 AM,48.2,19.4,32,29.68,10.0,WNW,23.0,29.9,N/A,,Clear,300,2012-10-18 06:55:00
2:15 AM,48.2,21.2,34,29.68,10.0,WNW,20.7,26.5,N/A,,Clear,300,2012-10-18 07:15:00
2:35 AM,46.4,21.2,37,29.68,10.0,WNW,20.7,-,N/A,,Clear,300,2012-10-18 07:35:00
2:55 AM,46.4,21.2,37,29.67,10.0,WNW,23.0,-,N/A,,Clear,290,2012-10-18 07:55:00
3:15 AM,46.4,19.4,34,29.66,10.0,WNW,25.3,-,N/A,,Clear,300,2012-10-18 08:15:00
3:35 AM,48.2,19.4,32,29.65,10.0,WNW,29.9,36.8,N/A,,Clear,300,2012-10-18 08:35:00
3:55 AM,46.4,19.4,34,29.65,10.0,WNW,24.2,35.7,N/A,,Clear,300,2012-10-18 08:55:00
4:15 AM,46.4,19.4,34,29.65,10.0,WNW,23.0,33.4,N/A,,Clear,290,2012-10-18 09:15:00
4:35 AM,46.4,19.4,34,29.63,10.0,WNW,27.6,33.4,N/A,,Clear,300,2012-10-18 09:35:00
4:55 AM,46.4,19.4,34,29.63,10.0,WNW,24.2,29.9,N/A,,Clear,290,2012-10-18 09:55:00
5:15 AM,44.6,19.4,37,29.63,10.0,WNW,24.2,29.9,N/A,,Clear,300,2012-10-18 10:15:00
5:35 AM,44.6,19.4,37,29.63,10.0,WNW,21.9,-,N/A,,Clear,300,2012-10-18 10:35:00
5:55 AM,46.4,19.4,34,29.62,10.0,WNW,24.2,32.2,N/A,,Clear,300,2012-10-18 10:55:00
6:15 AM,46.4,19.4,34,29.62,10.0,NW,26.5,34.5,N/A,,Clear,310,2012-10-18 11:15:00
6:35 AM,48.2,19.4,32,29.62,10.0,WNW,28.8,38.0,N/A,,Mostly Cloudy,300,2012-10-18 11:35:00
6:55 AM,48.2,19.4,32,29.62,10.0,NW,29.9,40.3,N/A,,Overcast,310,2012-10-18 11:55:00
7:15 AM,48.2,19.4,32,29.61,10.0,WNW,33.4,39.1,N/A,,Overcast,300,2012-10-18 12:15:00
7:55 AM,46.4,19.4,34,29.61,10.0,WNW,24.2,29.9,N/A,,Overcast,290,2012-10-18 12:55:00
8:15 AM,44.6,19.4,37,29.61,10.0,WNW,25.3,31.1,N/A,,Mostly Cloudy,290,2012-10-18 13:15:00
8:35 AM,46.4,19.4,34,29.61,10.0,NW,31.1,42.6,N/A,,Clear,310,2012-10-18 13:35:00
8:55 AM,48.2,19.4,32,29.61,10.0,NW,28.8,40.3,N/A,,Clear,310,2012-10-18 13:55:00
9:15 AM,48.2,21.2,34,29.61,9.0,NW,36.8,48.3,N/A,,Mostly Cloudy,310,2012-10-18 14:15:00
9:35 AM,50.0,21.2,32,29.61,9.0,NW,42.6,52.9,N/A,,Partly Cloudy,320,2012-10-18 14:35:00
9:55 AM,50.0,23.0,35,29.62,9.0,NW,36.8,47.2,N/A,,Clear,320,2012-10-18 14:55:00
10:15 AM,50.0,23.0,35,29.62,9.0,NW,38.0,47.2,N/A,,Scattered Clouds,320,2012-10-18 15:15:00
10:35 AM,50.0,24.8,37,29.61,7.0,NW,46.0,58.7,N/A,,Mostly Cloudy,310,2012-10-18 15:35:00
10:55 AM,50.0,24.8,37,29.61,8.0,NW,42.6,56.4,N/A,,Overcast,320,2012-10-18 15:55:00
11:15 AM,50.0,24.8,37,29.62,7.0,NW,40.3,52.9,N/A,,Overcast,310,2012-10-18 16:15:00
11:35 AM,50.0,24.8,37,29.62,7.0,NW,35.7,52.9,N/A,,Overcast,320,2012-10-18 16:35:00
11:55 AM,50.0,24.8,37,29.62,8.0,NW,35.7,50.6,N/A,,Overcast,320,2012-10-18 16:55:00
12:15 PM,50.0,26.6,40,29.63,7.0,NW,39.1,49.5,N/A,,Overcast,310,2012-10-18 17:15:00
12:35 PM,50.0,26.6,40,29.63,8.0,NW,39.1,46.0,N/A,,Overcast,310,2012-10-18 17:35:00
12:55 PM,50.0,26.6,40,29.63,7.0,NW,33.4,48.3,N/A,,Overcast,310,2012-10-18 17:55:00
1:15 PM,50.0,26.6,40,29.63,7.0,NW,35.7,50.6,N/A,,Overcast,320,2012-10-18 18:15:00
1:35 PM,50.0,26.6,40,29.62,8.0,NW,40.3,50.6,N/A,,Overcast,310,2012-10-18 18:35:00
1:55 PM,50.0,26.6,40,29.63,8.0,NW,28.8,42.6,N/A,,Overcast,310,2012-10-18 18:55:00
2:15 PM,50.0,28.4,43,29.63,7.0,NW,32.2,47.2,N/A,,Overcast,310,2012-10-18 19:15:00
2:35 PM,50.0,28.4,43,29.62,8.0,NW,39.1,46.0,N/A,,Overcast,310,2012-10-18 19:35:00
2:55 PM,50.0,28.4,43,29.63,8.0,NW,34.5,44.9,N/A,,Overcast,320,2012-10-18 19:55:00
3:15 PM,48.2,32.0,54,29.64,5.0,NW,38.0,55.2,N/A,Rain,Light Rain,320,2012-10-18 20:15:00
3:35 PM,48.2,33.8,58,29.64,5.0,NW,38.0,56.4,N/A,Rain,Light Rain,320,2012-10-18 20:35:00
3:55 PM,48.2,32.0,54,29.65,7.0,NW,34.5,44.9,N/A,Rain,Light Rain,320,2012-10-18 20:55:00
4:15 PM,48.2,32.0,54,29.66,7.0,NW,41.4,55.2,N/A,Rain,Light Rain,320,2012-10-18 21:15:00
4:35 PM,50.0,32.0,50,29.66,7.0,NW,35.7,54.1,N/A,,Overcast,320,2012-10-18 21:35:00
4:55 PM,50.0,32.0,50,29.67,8.0,NW,38.0,47.2,N/A,,Overcast,320,2012-10-18 21:55:00
5:15 PM,50.0,32.0,50,29.68,9.0,NW,33.4,44.9,N/A,,Overcast,320,2012-10-18 22:15:00
5:35 PM,48.2,32.0,54,29.69,8.0,NW,36.8,51.8,N/A,,Overcast,320,2012-10-18 22:35:00
5:55 PM,48.2,33.8,58,29.69,9.0,NW,36.8,52.9,N/A,,Overcast,320,2012-10-18 22:55:00
6:15 PM,48.2,33.8,58,29.70,10.0,NW,34.5,44.9,N/A,,Overcast,320,2012-10-18 23:15:00
6:35 PM,48.2,32.0,54,29.71,10.0,NW,31.1,43.7,N/A,,Overcast,320,2012-10-18 23:35:00
6:55 PM,48.2,32.0,54,29.72,10.0,NW,28.8,42.6,N/A,,Overcast,320,2012-10-18 23:55:00
7:15 PM,48.2,32.0,54,29.72,10.0,NW,26.5,40.3,N/A,,Overcast,320,2012-10-19 00:15:00
7:35 PM,50.0,32.0,50,29.72,10.0,NNW,25.3,42.6,N/A,,Overcast,330,2012-10-19 00:35:00
7:55 PM,48.2,32.0,54,29.73,10.0,NW,27.6,33.4,N/A,,Overcast,320,2012-10-19 00:55:00
8:15 PM,50.0,32.0,50,29.72,10.0,NW,23.0,35.7,N/A,,Overcast,320,2012-10-19 01:15:00
8:35 PM,50.0,32.0,50,29.72,10.0,NNW,29.9,35.7,N/A,,Overcast,330,2012-10-19 01:35:00
8:55 PM,50.0,32.0,50,29.72,10.0,NW,26.5,39.1,N/A,,Overcast,320,2012-10-19 01:55:00
9:15 PM,50.0,32.0,50,29.73,10.0,NW,26.5,38.0,N/A,,Overcast,320,2012-10-19 02:15:00
9:35 PM,50.0,32.0,50,29.72,10.0,NNW,35.7,47.2,N/A,,Unknown,330,2012-10-19 02:35:00
9:55 PM,50.0,32.0,50,29.72,10.0,NNW,32.2,44.9,N/A,,Unknown,330,2012-10-19 02:55:00
10:15 PM,48.2,32.0,54,29.73,10.0,NW,32.2,36.8,N/A,,Overcast,320,2012-10-19 03:15:00
10:35 PM,48.2,32.0,54,29.73,10.0,NW,27.6,38.0,N/A,,Overcast,320,2012-10-19 03:35:00
10:55 PM,48.2,32.0,54,29.72,10.0,NNW,33.4,47.2,N/A,,Overcast,330,2012-10-19 03:55:00